CAPE
0 0 0 0 0 0 0 0 0 0 0 0 0 0 0 0 0 0 0 0 0 0 0 0 1 3 6
0 0 0 0 0 0 0 0 0 0 0 0 0 0 0 0 0 0 0 0 0 0 0 1 3 2 2
0 0 0 0 0 0 0 0 0 0 0 0 0 0 0 0 0 0 0 0 0 0 1 2 2 1 2
0 0 0 0 0 0 0 0 0 0 0 0 0 0 0 0 0 0 0 0 0 1 1 0 1 1 1
0 0 0 0 0 0 0 0 0 0 0 0 0 0 0 0 0 0 0 0 0 0 0 0 0 1 0
0 0 0 0 0 0 0 0 0 0 0 0 0 0 0 0 0 0 0 0 0 0 0 0 0 1 0
0 0 0 0 0 0 0 0 0 0 0 0 0 0 0 0 0 0 0 0 0 0 0 0 0 2 0
0 0 0 0 0 0 0 0 0 0 0 0 0 0 0 0 0 0 0 0 0 0 0 0 0 0 0
0 0 0 0 0 0 0 0 0 0 0 0 0 0 0 0 0 0 0 0 0 0 0 0 0 0 0
0 0 0 0 0 0 0 0 0 0 0 0 0 0 0 0 0 0 0 0 0 0 0 0 0 0 0
0 0 0 0 0 0 0 0 0 0 0 0 0 0 0 0 0 0 0 0 0 0 0 0 0 0 0
0 0 0 0 0 0 0 0 0 0 0 0 0 0 0 0 0 0 0 0 0 0 0 0 0 0 0
0 0 0 0 0 0 0 0 0 0 0 0 0 0 0 0 0 0 0 0 0 0 0 0 0 0 0
0 0 0 0 0 0 0 0 0 0 0 0 0 0 0 0 0 0 0 0 0 0 0 0 0 0 0
0 0 0 0 0 0 0 0 0 0 0 0 0 0 0 0 0 0 0 0 0 0 0 0 0 0 0
0 0 0 0 0 0 0 0 0 0 0 0 0 0 0 0 0 0 0 0 0 0 0 0 0 0 0
0 0 0 0 0 0 0 0 0 0 0 0 0 0 0 0 0 0 0 0 0 0 0 0 0 0 0
CIN
0 0 0 0 0 0 0 0 0 0 0 0 0 0 0 0 0 0 0 0 0 0 0 0 0 -1 -1
0 0 0 0 0 0 0 0 0 0 0 0 0 0 0 0 0 0 0 0 0 0 0 0 0 0 -1
0 0 0 0 0 0 0 0 0 0 0 0 0 0 0 0 0 0 0 0 0 0 -1 0 0 -1 0
0 0 0 0 0 0 0 0 0 0 0 0 0 0 0 0 0 0 0 0 0 0 0 0 0 0 -1
0 0 0 0 0 0 0 0 0 0 0 0 0 0 0 0 0 0 0 0 0 0 0 0 -1 -1 0
0 0 0 0 0 0 0 0 0 0 0 0 0 0 0 0 0 0 0 0 0 0 0 0 0 -1 0
0 0 0 0 0 0 0 0 0 0 0 0 0 0 0 0 0 0 0 0 0 0 0 0 0 -1 0
0 0 0 0 0 0 0 0 0 0 0 0 0 0 0 0 0 0 0 0 0 0 0 0 0 0 0
0 0 0 0 0 0 0 0 0 0 0 0 0 0 0 0 0 0 0 0 0 0 0 0 0 0 0
0 0 0 0 0 0 0 0 0 0 0 0 0 0 0 0 0 0 0 0 0 0 0 0 0 0 0
0 0 0 0 0 0 0 0 0 0 0 0 0 0 0 0 0 0 0 0 0 0 0 0 0 0 0
0 0 0 0 0 0 0 0 0 0 0 0 0 0 0 0 0 0 0 0 0 0 0 0 0 0 0
0 0 0 0 0 0 0 0 0 0 0 0 0 0 0 0 0 0 0 0 0 0 0 0 0 0 0
0 0 0 0 0 0 0 0 0 0 0 0 0 0 0 0 0 0 0 0 0 0 -1 0 0 0 0
0 0 0 0 0 0 0 0 0 0 0 0 0 0 0 0 0 0 0 0 0 0 0 0 0 0 0
0 0 0 0 0 0 0 0 0 0 0 0 0 0 0 0 0 0 0 0 0 0 0 0 0 0 0
0 0 0 0 0 0 0 0 0 0 0 0 0 0 0 0 0 0 0 0 0 0 0 0 0 0 0
Wind_Speed
17 16 16 15 12 13 13 13 15 16 20 22 22 24 27 28 30 31 30 31 31 32 33 35 34 35 37
20 20 18 16 15 15 15 16 18 18 20 22 22 24 27 29 28 29 29 30 31 33 33 33 33 35 37
25 22 17 14 15 15 15 17 19 20 21 22 21 25 25 26 26 27 29 31 31 31 31 32 34 37 39
21 17 16 15 15 15 17 19 18 18 19 20 20 22 24 24 25 27 29 30 29 29 31 35 36 37 39
19 17 17 15 15 14 19 16 16 17 20 21 21 22 24 23 24 27 30 28 27 30 34 36 36 38 39
17 16 16 15 17 15 15 17 21 18 20 21 21 22 22 22 25 28 28 26 29 32 35 36 38 39 40
15 15 15 14 13 14 14 18 20 18 19 20 18 22 22 24 27 28 26 27 31 34 35 37 39 40 40
12 12 13 11 13 15 15 17 18 19 20 22 19 23 25 27 26 25 25 30 33 34 36 39 40 40 41
10 11 12 12 12 12 14 16 19 20 18 21 22 25 26 26 24 25 30 31 33 35 38 40 40 41 40
11 12 12 12 13 16 14 16 17 19 18 22 25 26 28 23 26 30 31 32 35 37 38 38 40 41 41
11 11 12 13 15 15 16 16 16 19 17 20 23 25 25 28 29 30 31 36 37 37 37 38 39 42 42
11 11 12 12 13 14 14 15 17 18 18 20 22 24 27 30 31 32 35 35 35 36 36 38 40 40 39
12 11 11 11 12 12 14 16 17 18 19 20 21 23 26 28 31 34 38 36 35 35 38 39 42 41 43
9 10 10 11 12 12 14 16 17 18 19 20 22 24 28 29 31 34 35 36 37 38 39 40 40 38 38
9 10 11 11 12 13 15 17 19 21 22 21 23 25 26 29 31 31 33 35 36 38 41 41 39 38 37
10 11 12 12 13 14 16 18 20 21 23 25 28 31 30 28 23 29 32 35 37 38 38 40 41 38 34
11 12 12 12 13 15 17 18 20 22 23 26 28 30 33 35 30 28 34 37 37 38 38 38 39 38 36
Wind_Direction
301 306 302 303 308 309 313 319 321 324 322 324 328 328 328 330 330 331 332 333 335 335 335 333 334 334 333
298 301 299 300 305 303 308 312 315 318 320 321 323 327 327 328 331 332 333 334 334 334 333 335 336 335 334
298 301 300 301 302 303 306 312 315 318 318 320 322 324 327 330 333 334 333 334 336 335 336 336 335 333 333
300 298 299 301 301 300 306 312 313 319 321 323 324 327 329 332 333 334 335 335 336 338 338 335 335 335 334
294 295 298 293 291 301 307 312 316 321 320 321 325 327 328 333 335 335 335 337 339 338 336 335 336 335 334
292 287 291 293 296 300 306 313 314 321 320 321 326 327 331 335 335 334 336 338 338 336 336 336 335 335 334
285 289 297 298 301 303 307 311 315 323 326 327 330 329 333 335 333 334 336 339 338 337 337 336 335 335 335
303 307 311 309 306 310 312 316 321 324 327 324 333 331 332 334 335 337 338 336 336 337 337 336 336 336 335
324 323 324 321 320 319 314 314 316 320 329 327 331 332 334 335 340 342 338 338 339 338 337 337 337 337 336
329 326 326 327 324 320 317 313 318 321 328 327 331 335 333 340 340 340 340 340 339 338 338 339 339 338 337
320 320 321 323 324 326 326 322 322 325 332 334 332 334 335 334 338 340 342 339 339 340 341 340 339 339 337
311 314 318 322 326 329 331 331 331 331 335 335 334 336 334 333 335 338 338 340 341 340 341 341 339 339 338
307 313 319 325 330 331 332 333 334 335 336 337 337 337 334 333 333 335 336 341 342 343 341 341 340 340 339
309 316 322 324 324 327 329 331 330 334 339 340 339 337 334 334 334 334 338 339 340 340 341 341 341 341 341
306 309 312 317 320 327 328 328 328 330 333 337 338 337 336 334 335 337 339 340 342 341 341 342 344 344 344
302 305 307 309 314 321 326 327 328 331 332 334 336 336 339 342 338 338 341 341 342 342 343 343 344 347 348
300 303 305 308 313 319 323 326 329 332 334 335 337 338 338 338 342 345 342 341 342 343 345 345 343 344 347